STARLINK-5003 (53905 NORAD) Tracking and Keplerian Element Data

This shows tracking and keplerian element data for the satellite.

Feedback or suggestion? Click here.




ElementValue
Catalog53905
NameSTARLINK-5003
Epoch Orbit130
Epoch Day324.91667824
Epoch Year2022
RAAN331.1521
Inclination53.2136
Eccentricity0.0004161
Argument of Perigee2.7125
Mean Anonmoly6.7374
Mean Motion15.73136981
Decay Rate0.00088294
L11 53905U 22119V 22324.91667824 .00088294 00000+0 62839-3 0 9994
L22 53905 53.2136 331.1521 0004161 2.7125 6.7374 15.73136981 1304



Live tracking and technical data element details for STARLINK-5003 (NORAD 53905). STARLINK-5003 can be tracked NOW for your location showing map with azimuth and elevation plus other details from your city location.







IsCatalogInMostPopularTable: catalog: 53905, numindb: 1
Update: records affected: 1



GetName: 53905 STARLINK-5003

Hit Count: updated at: Mon, 28 Nov 2022 22:11:59 GMT